This is the latest recevied weather packets stored in our database for station/object PP5KJ-13. If no packets are shown the sender has not sent any weather packets the latest 10 day(s).
| Time | Temp. | Humidity | Pressure | Rain* | Wind** | Luminosity | Snow |
|---|---|---|---|---|---|---|---|
| 1788355879 | 21.11° C | 5% | 1021 hPa | 0 mm | 2.24 m/s, 190° | - | - |
| 1788355278 | 21.11° C | 5% | 1021 hPa | 0 mm | 2.24 m/s, 190° | - | - |
| 1788354679 | 21.11° C | 5% | 1021 hPa | 0 mm | 2.24 m/s, 190° | - | - |
| 1788353479 | 21.11° C | 5% | 1021 hPa | 0 mm | 4.92 m/s, 190° | - | - |
| 1788352878 | 20.56° C | 5% | 1021 hPa | 0 mm | 4.92 m/s, 190° | - | - |
| 1788352276 | 20.56° C | 5% | 1021 hPa | 0 mm | 4.92 m/s, 190° | - | - |
| 1788351676 | 20° C | 5% | 1021 hPa | 0 mm | 4.92 m/s, 190° | - | - |
| 1788351076 | 19.44° C | 5% | 1021 hPa | 0 mm | 4.02 m/s, 200° | - | - |
| 1788349876 | 19.44° C | 5% | 1021 hPa | 0 mm | 4.02 m/s, 200° | - | - |
| 1788348676 | 18.89° C | 5% | 1021 hPa | 0 mm | 4.02 m/s, 200° | - | - |
| 1788348076 | 18.33° C | 5% | 1020 hPa | 0 mm | 4.02 m/s, 200° | - | - |
| 1788347476 | 18.33° C | 5% | 1020 hPa | 0 mm | 4.02 m/s, 200° | - | - |
| 1788346876 | 18.33° C | 5% | 1020 hPa | 0 mm | 1.34 m/s, 130° | - | - |
| 1788346276 | 17.78° C | 5% | 1020 hPa | 0 mm | 1.34 m/s, 130° | - | - |
| 1788345676 | 17.22° C | 5% | 1020 hPa | 0 mm | 1.34 m/s, 130° | - | - |
| 1788345076 | 17.22° C | 5% | 1019 hPa | 0 mm | 1.34 m/s, 130° | - | - |
| 1788344476 | 17.22° C | 5% | 1019 hPa | 0 mm | 1.34 m/s, 130° | - | - |
| 1788343876 | 17.22° C | 5% | 1019 hPa | 0 mm | 1.34 m/s, 130° | - | - |
| 1788343275 | 17.22° C | 5% | 1019 hPa | 0 mm | 2.24 m/s, 160° | - | - |
| 1788342675 | 16.67° C | 5% | 1019 hPa | 0 mm | 2.24 m/s, 160° | - | - |
| 1788342075 | 16.11° C | 5% | 1019 hPa | 0 mm | 2.24 m/s, 160° | - | - |
| 1788341475 | 16.11° C | 5% | 1018 hPa | 0 mm | 2.24 m/s, 160° | - | - |
| 1788340875 | 15.56° C | 5% | 1018 hPa | 0 mm | 2.24 m/s, 160° | - | - |
| 1788340275 | 16.11° C | 5% | 1018 hPa | 0 mm | 2.24 m/s, 160° | - | - |
| 1788339675 | 16.67° C | 5% | 1018 hPa | 0 mm | 4.47 m/s, 100° | - | - |
* Rain latest hour (hover to see other rain measurements)
** Current wind speed in m/s (hover to see current wind gust speed)